SCOUT A DEB, 2989

Orbit data source: Space-Track

SCOUT A DEB, 2989 is space debris in LEO originally from a launch on Fri, 28 Jan 1966 UTC launched from the Air Force Western Test Range (AFWTR). Debris objects in space refer to the collection of defunct objects orbiting the Earth. Examples of debris include non-operational satellites, rocket bodies, and fragments generated from explosions, collisions, or faulty payload assembly.

Loading next visibility...
SCOUT A DEB details
Identifier
2989, 1966-005F
Orbit
LEO
Last TLE update22 hours ago
Origin
Flag of USUSN NAVAIR (US)
ManufacturerUnknown
MissionSpacecraft
Bus & MotorUnknown
MassUnknown
Launch date (UTC)
1966-01-28 (59 years ago)
Launch vehicleUnknown
Launch site
Air Force Western Test Range (AFWTR)
Object type
Payload
Rocket body
Debris
Shape & HBRUnknown
Radar Cross SectionSmall (<0.1 m²)

Expand to show TLE details & history

TLE from 22 hours ago
0 SCOUT A DEB
1 02989U 66005F   24355.61980087  .00000694  00000-0  44141-3 0  9999
2 02989  89.6760 304.2091 0110259 161.6778 198.8423 13.99806324920932
Epoch: 2024-12-20T14:52Z
Definitive object data (Epoch: 2024-12-20T14:52:30.795Z)
Latitude0.00001°
Longitude-8.60192°
Altitude973.489 km
Speed7.326 km/s
True Right ascension20h 16m 50s
True Declination0° 00' 00"
Sunlit
Object was in daylight at TLE epoch
Visualization TLE readout
Latitude10.57891°
Longitude-8.57483°
Altitude964.591 km
Speed7.336 km/s
Apparent Right ascension21h 51m 14s
Apparent Declination-14° 28' 46"
Sunlit
Object is in daylight
Visualization observer readout
Local Sidereal Time12:15:41
Azimuth61.476° ENE
Elevation-49.498°
Doppler factor1
Orbital elements
Apogee altitude971.597 km
Perigee altitude811.289 km
Semi-major axis7,269.58 km
Eccentricity0.0110259
Inclination89.676°
RAAN304.2091°
Arg. of periapsis161.6778°
True anomaly198.4395°
Mean anomaly198.8423°
Eccentric anomaly198.64038°
Mean motion3.5017 °/min
BSTAR0.00044141
Orbital period102.81 mins
Loading maneuver chart data...
Loading historical data...
Loading historical data...
Loading historical data...
Loading historical data...
Loading historical data...
Loading historical data...
Loading historical data...

SCOUT A DEB Visibility forecast

Observer location: undefined°, undefined

Span
Click to sort rows by Start time (UTC) header in descending order
Start Az.
Max El. time (UTC)
Max El. Az.
Max El.
End time (UTC)
End Az.
9 mins2024-12-21 20:09:45.561Z132.542° SE2024-12-21 20:14:45.561Z72.052° E25.182°2024-12-21 20:18:45.561Z24.673° NE
9 mins2024-12-21 21:52:45.561Z212.276° SW2024-12-21 21:56:45.561Z269.023° W32.454°2024-12-21 22:01:45.561Z339.427° N
8 mins2024-12-22 08:39:45.561Z21.999° NNE2024-12-22 08:42:45.561Z79.6° E37.358°2024-12-22 08:47:45.561Z162.31° S
6 mins2024-12-22 10:22:45.561Z317.524° NNW2024-12-22 10:25:45.561Z278.18° WNW17.367°2024-12-22 10:28:45.561Z243.541° WSW
|